Strona główna
METAR-TAF:

METAR-TAF

Lotnisko :

Port lotniczy Arnhem-Deelen

Arnhem, Holandia

Szerokość geograficzna: 52-04N, Długość geograficzna: 005-53E, wysokość: 48 m

Aktualna obserwacja pogody

Raport powstał 16 minut temu, godzina 05:25 UTC
Wiatr 9 kt z kierunków zmiennych
Temperatura 10°C
Wilgotność 82%
Ciśnienie 1035 hPa
Widzialność 10 km lub więcej

METAR: EHDL 280525Z AUTO VRB09KT 9999 NCD 10/07 Q1035 BLU

czas: 07:41 (05:41 UTC)


TAF: brakujący

Obserwacja i prognoza pogody dla ponad 4000 lotnisk (raport METAR i TAF).

Dostępne stacje oznaczono żółtymi i czerwonymi punktami na mapie.

Najedź kursorem aby zobaczyć nazwę stacji.

Kliknij aby zobaczyć obserwacje i prognozy pogody.

Aby zmienić mapę: kliknij na zielony przycisk z czarnym krzyżykiem, aby powiększyć; na zielony przycisk z myślnikiem, aby pomniejszyć; na zielone strzałki, aby przejść do map sąsiednich.


METAR-TAF: